Temperature
11 10 9 10 11 11 11 11 11 11 12 11 10 10 10 10 10 10 10 9 8 8 7 7 7 7 7 7 7 7 7 7 7 7 7 7 7 8 8 8 8 8 8 8
10 9 10 11 11 11 11 10 10 11 11 11 9 9 10 10 10 10 9 9 8 7 7 6 6 6 6 6 6 6 7 7 7 7 7 7 7 7 7 7 7 7 7 7
9 9 11 11 10 10 10 10 10 9 10 10 9 8 9 10 10 9 9 8 8 7 6 6 5 5 6 6 6 6 6 6 6 6 6 6 6 6 6 6 7 7 7 7
9 10 10 10 10 10 9 10 10 9 8 7 9 7 9 9 9 8 8 8 7 6 6 5 5 5 5 5 5 5 5 5 5 5 6 6 6 6 5 6 6 6 6 6
8 9 9 9 9 9 9 9 9 9 8 7 8 7 8 9 8 7 7 7 7 6 5 5 5 5 5 5 5 5 5 5 5 5 5 5 5 5 5 5 5 5 6 6
8 9 8 8 9 9 9 8 8 8 7 6 7 7 7 8 8 7 7 7 6 6 5 5 5 4 4 4 4 5 4 4 4 4 4 4 4 4 4 4 5 5 5 5
8 8 8 8 8 8 8 7 6 6 6 6 8 8 7 8 8 7 7 6 6 5 5 4 4 4 4 4 4 4 4 4 4 4 4 4 4 4 4 4 4 4 4 4
7 7 7 7 7 7 7 7 6 6 6 7 8 7 7 7 7 7 7 6 5 5 4 4 4 3 3 3 3 3 3 3 3 3 3 3 3 3 3 3 3 4 3 3
6 6 7 7 7 7 7 6 7 6 6 6 7 7 7 7 6 6 6 6 5 5 4 4 3 3 3 3 3 3 3 3 3 3 3 3 3 3 3 3 3 3 3 3
6 5 6 7 7 6 6 6 6 5 5 6 7 7 6 6 6 5 5 5 5 4 4 3 3 3 2 2 2 2 2 2 2 2 2 2 2 2 2 2 2 2 2 2
6 4 5 6 5 5 5 6 5 5 5 6 6 6 7 6 6 5 5 5 4 4 3 3 2 2 2 2 2 2 2 2 2 2 2 2 2 2 2 2 2 2 2 2
5 4 4 5 5 5 5 6 5 4 5 5 5 5 6 5 5 5 4 4 4 3 3 2 2 2 1 1 1 1 1 1 1 1 1 1 1 1 1 1 1 1 1 1
4 3 3 4 4 4 4 5 4 4 4 4 5 5 5 5 4 4 4 4 3 3 2 2 1 1 1 1 1 1 1 1 1 1 1 1 1 1 1 1 1 1 1 1
4 2 2 4 4 3 3 3 3 3 3 4 4 4 4 3 3 3 3 3 3 2 2 1 1 1 0 0 0 0 0 0 0 0 0 0 0 0 0 0 0 0 1 1
2 1 2 2 3 3 3 3 3 2 3 3 4 3 3 3 2 2 3 2 2 1 1 0 0 -0 -0 -0 -0 -0 -0 0 -0 -0 -0 -0 -0 -0 -0 0 0 0 0 0
1 1 1 1 3 2 2 2 2 2 3 3 3 3 2 3 3 2 2 1 1 1 0 -0 -0 -0 -1 -0 -1 -0 -0 -0 -1 -1 -0 -0 -0 -0 -0 -0 -1 -0 -0 -0
0 0 1 2 2 2 1 1 2 2 2 2 2 2 2 1 1 1 1 1 0 0 -0 -1 -1 -1 -1 -1 -1 -1 -1 -1 -1 -1 -1 -1 -1 -1 -1 -1 -1 -1 -1 -1
-0 0 1 1 1 1 2 2 2 1 1 1 1 1 1 1 1 1 1 0 -0 -1 -1 -1 -1 -1 -1 -1 -1 -1 -1 -1 -1 -1 -1 -1 -1 -1 -1 -1 -1 -1 -1 -1
0 -0 1 1 1 2 1 1 1 0 -0 0 0 0 0 1 1 0 -0 -1 -1 -1 -2 -2 -2 -2 -2 -2 -2 -2 -2 -2 -2 -2 -2 -2 -2 -2 -2 -2 -2 -2 -2 -2
-1 -1 -0 1 1 1 1 0 0 0 -0 -1 -1 -1 -1 -1 -1 -1 -1 -1 -1 -2 -2 -2 -2 -2 -2 -2 -2 -2 -2 -2 -2 -2 -2 -2 -2 -2 -2 -2 -2 -2 -2 -2
-1 -1 -0 0 1 1 -0 -0 0 0 -1 -1 -1 -2 -2 -2 -2 -2 -2 -2 -2 -2 -2 -2 -2 -2 -3 -3 -3 -3 -3 -3 -3 -3 -3 -3 -2 -3 -2 -2 -2 -3 -3 -3
-1 -1 -1 -0 0 0 -1 -1 -1 -2 -1 -2 -2 -2 -3 -3 -3 -3 -3 -3 -3 -3 -3 -3 -3 -3 -3 -3 -3 -3 -3 -3 -3 -3 -3 -3 -3 -3 -3 -3 -3 -3 -3 -3
-1 -1 -1 -1 -1 -1 -1 -1 -1 -1 -2 -2 -2 -3 -3 -3 -3 -3 -3 -3 -3 -3 -3 -3 -3 -3 -3 -3 -3 -3 -3 -4 -4 -4 -3 -3 -3 -3 -3 -3 -3 -3 -3 -3
-2 -1 -2 -2 -2 -1 -1 -1 -2 -2 -2 -2 -3 -3 -3 -3 -4 -4 -4 -4 -4 -4 -4 -4 -4 -4 -4 -4 -4 -4 -4 -4 -4 -4 -4 -4 -4 -4 -4 -4 -4 -4 -4 -4
-2 -2 -2 -3 -2 -2 -2 -2 -2 -2 -3 -3 -3 -3 -3 -4 -4 -4 -4 -4 -4 -4 -4 -4 -4 -4 -4 -4 -4 -4 -4 -4 -4 -4 -4 -4 -4 -4 -4 -4 -4 -4 -4 -5
-3 -3 -3 -3 -2 -2 -2 -2 -3 -3 -3 -3 -3 -3 -4 -4 -4 -4 -4 -4 -4 -4 -4 -4 -4 -4 -4 -4 -4 -4 -4 -4 -4 -5 -5 -5 -5 -5 -5 -5 -5 -5 -5 -5
Wind_Speed
4 4 5 5 7 7 7 8 9 7 2 3 7 9 8 5 5 4 4 4 3 3 3 3 3 4 3 4 4 4 3 2 2 1 1 1 1 1 1 3 4 4 4 4
4 6 6 6 6 8 9 9 9 6 1 3 6 10 8 7 7 6 5 4 3 3 3 3 3 3 4 4 4 3 3 2 2 1 0 0 0 0 1 2 3 4 4 3
6 3 4 6 7 8 8 8 7 5 5 5 6 7 9 6 6 4 4 3 4 4 3 3 2 3 3 3 3 2 2 2 2 1 1 0 0 0 1 1 0 2 2 3
4 4 5 6 7 7 7 5 5 4 3 4 4 5 5 5 5 5 4 3 3 3 3 3 2 2 2 2 2 2 2 2 2 2 1 1 0 0 1 1 0 1 2 2
3 2 3 6 6 6 4 4 5 5 5 5 6 5 5 5 5 5 5 4 4 4 3 3 3 2 2 2 2 2 2 1 2 1 1 0 0 0 0 0 0 0 0 1
5 3 2 3 4 3 3 3 5 4 3 6 8 7 4 3 5 6 6 5 4 4 3 3 3 3 2 2 2 2 2 1 1 1 1 1 1 1 0 1 1 1 1 0
4 4 3 2 3 3 2 1 1 2 4 6 6 5 4 2 2 5 7 6 4 4 3 3 3 2 2 2 2 1 1 1 1 1 1 1 2 1 1 1 1 1 1 1
3 3 3 2 3 3 5 4 3 3 3 2 2 5 2 1 3 5 5 6 4 4 3 3 3 2 1 1 1 1 1 1 1 1 1 1 2 1 1 1 1 2 2 2
2 2 1 1 2 2 2 4 3 3 4 4 4 2 1 2 4 5 4 4 4 3 3 2 2 1 1 1 1 1 1 2 1 1 1 2 2 2 2 2 2 2 2 2
2 3 2 1 2 3 3 2 1 3 3 4 4 4 3 4 5 5 5 3 3 2 2 1 1 1 0 0 1 1 1 2 2 1 2 2 2 2 2 2 3 2 2 2
2 2 2 2 4 4 3 3 3 3 3 3 3 2 1 2 3 5 4 2 2 2 2 1 1 1 1 1 1 1 2 2 2 2 2 2 2 2 2 2 3 3 2 2
1 1 3 3 1 2 3 4 3 3 4 3 3 4 2 3 3 3 2 1 2 2 1 1 1 1 1 1 2 2 2 2 2 2 2 2 2 2 2 3 3 3 3 3
1 0 2 2 1 1 2 3 3 2 2 3 4 4 1 3 4 3 1 1 1 1 1 1 0 0 1 1 2 2 2 2 3 2 2 2 2 2 3 3 3 3 3 3
1 2 4 6 5 2 4 4 3 4 5 6 7 7 5 3 3 3 1 0 1 1 0 0 1 1 1 2 2 2 3 3 3 2 2 2 2 2 2 2 2 2 2 2
1 3 4 7 7 5 5 6 5 7 8 7 7 7 6 5 4 4 2 1 1 0 1 1 2 2 2 2 2 2 3 3 3 2 2 2 2 2 2 2 2 2 2 2
0 3 3 6 5 5 7 8 8 8 8 9 9 10 6 6 4 3 2 1 2 2 1 2 3 2 2 2 2 2 3 3 3 2 2 2 2 2 2 2 2 2 2 2
2 3 4 5 4 5 7 6 7 6 6 6 8 9 6 5 5 4 3 2 3 2 2 3 3 3 3 2 2 2 3 2 2 2 2 2 2 2 2 2 1 1 1 2
3 4 3 4 3 7 5 1 3 5 6 4 4 5 5 6 6 3 1 1 3 3 3 3 3 3 2 2 2 2 2 2 2 2 2 2 2 2 2 2 1 1 1 1
3 3 2 3 5 6 3 2 2 2 5 3 4 6 7 6 4 1 4 4 3 4 4 3 2 2 2 2 2 2 2 2 2 2 2 2 2 2 2 1 1 1 1 1
2 2 2 4 5 6 3 2 3 1 3 3 4 5 6 5 2 3 4 5 4 4 3 2 2 2 2 2 2 2 2 2 2 2 2 2 2 2 1 1 1 1 1 1
1 2 4 5 6 4 1 2 2 0 3 5 5 5 5 3 3 4 5 4 4 3 3 2 2 2 2 2 2 2 2 3 3 3 2 2 2 2 2 2 2 1 1 1
3 2 3 3 5 5 2 2 0 2 3 4 5 5 4 5 5 4 4 4 3 3 3 2 2 2 2 2 2 2 2 3 3 3 3 2 2 2 2 2 2 2 1 1
3 3 2 3 4 2 1 1 2 2 3 4 5 5 4 4 4 4 4 3 3 3 2 2 1 2 2 2 2 2 2 2 2 2 2 2 2 2 2 2 2 2 2 1
2 2 2 3 3 3 3 2 2 2 3 4 4 4 4 3 3 3 3 3 3 3 2 2 2 2 2 3 3 2 2 2 2 2 2 2 2 2 2 2 2 2 2 2
3 2 3 5 4 4 3 3 3 4 4 4 4 3 3 3 3 3 3 3 3 2 2 2 1 1 2 2 3 3 3 2 2 2 2 2 2 2 2 2 2 2 2 2
3 3 4 4 3 3 4 3 3 3 4 4 4 3 3 2 2 2 2 3 2 2 2 2 2 2 2 2 3 3 3 2 2 2 2 2 2 2 2 2 2 4 3 5
Wind_Direction
198 227 226 225 226 257 279 276 276 278 252 228 243 255 249 227 217 222 210 196 179 152 119 97 87 86 76 72 69 65 69 58 50 44 44 51 53 45 48 46 45 51 50 41
226 237 251 261 258 264 268 266 273 289 257 253 262 268 259 237 223 213 211 189 165 137 110 101 87 81 71 68 62 65 61 59 55 30 355 3 138 131 79 50 44 40 46 48
233 260 265 259 259 261 259 257 262 275 301 263 268 273 242 224 203 187 185 173 149 142 124 105 89 76 70 58 57 59 60 52 43 25 36 36 68 106 45 26 23 31 38 42
245 263 268 264 262 262 266 280 278 267 266 262 236 276 247 204 188 173 174 165 146 131 121 119 110 91 83 76 65 59 63 60 43 29 35 62 97 151 237 217 206 24 44 51
252 275 276 260 265 266 266 296 275 253 251 268 238 251 252 193 195 186 174 164 147 140 140 139 127 106 88 81 79 63 49 57 58 39 11 333 193 240 305 213 220 240 13 47
251 259 275 282 285 266 292 287 270 247 250 254 225 219 259 211 201 182 169 152 143 140 137 127 109 98 82 72 69 61 44 32 43 33 3 338 312 288 295 298 250 263 263 301
246 224 204 242 265 219 238 236 272 222 216 240 209 206 239 211 150 163 163 150 139 131 129 120 106 90 68 59 49 37 18 354 22 29 349 317 302 303 272 259 253 256 258 255
254 246 183 211 235 234 223 212 218 245 250 277 225 223 207 138 125 130 134 137 140 144 140 130 124 116 89 54 37 24 326 312 321 311 292 294 290 266 269 287 278 257 251 245
283 256 149 218 282 269 241 228 244 272 277 268 236 214 200 155 134 136 140 149 160 156 138 127 114 107 84 37 345 311 312 305 301 281 276 275 279 277 276 279 277 278 270 262
313 285 243 209 240 245 256 271 240 221 251 262 244 222 217 199 190 172 170 178 171 143 125 112 105 79 83 10 322 340 316 292 288 282 271 282 282 275 267 267 265 259 270 272
310 252 261 205 213 229 215 215 229 244 248 250 273 260 4 159 155 166 178 183 165 150 153 145 124 66 23 3 351 342 331 322 308 290 281 282 278 276 275 267 269 269 269 273
311 265 263 246 244 285 250 240 213 227 252 244 259 265 350 54 77 108 125 131 139 147 151 147 128 77 26 354 345 347 338 330 312 297 295 291 287 278 275 272 276 284 280 283
354 197 285 277 243 314 275 262 244 252 273 249 249 259 351 40 41 44 87 135 151 144 123 124 116 36 344 333 339 340 333 321 311 307 304 296 292 281 273 278 283 281 278 286
350 207 224 253 273 276 266 267 244 221 240 255 246 258 283 316 334 338 335 256 149 163 167 21 341 344 337 333 336 338 337 329 319 318 309 300 295 286 279 280 282 286 289 290
113 239 252 271 276 270 268 263 245 233 241 247 261 267 280 295 296 299 295 306 321 273 289 313 318 318 321 329 337 340 336 332 327 334 336 326 318 315 311 307 302 305 305 298
225 239 272 279 269 268 273 270 254 248 253 257 270 275 286 299 304 313 314 275 281 284 300 315 318 319 313 310 320 331 330 330 334 342 336 332 327 327 324 309 304 313 314 312
214 222 260 271 276 296 273 255 242 244 248 253 258 267 300 310 308 293 294 300 290 287 299 295 297 297 300 305 317 315 316 326 335 334 333 338 338 337 324 311 316 309 313 319
214 239 248 277 294 256 249 258 241 235 254 258 272 297 306 299 303 302 334 328 314 308 297 291 293 303 314 328 329 321 324 328 333 338 342 344 352 351 350 0 348 329 337 337
237 219 238 254 268 264 259 295 314 255 276 299 289 300 310 319 319 346 35 20 346 320 309 306 315 328 337 341 343 342 341 345 346 345 345 347 349 352 357 360 342 334 343 328
288 226 222 245 263 271 280 345 338 314 266 344 333 318 327 345 319 296 1 0 345 332 330 343 351 7 4 358 7 5 354 352 339 329 334 342 346 351 344 339 334 332 331 318
265 243 239 250 255 266 282 325 4 225 277 336 346 335 334 320 294 305 335 344 335 330 343 4 13 26 6 0 12 2 360 346 341 351 0 356 355 352 354 357 350 355 2 355
220 222 238 244 245 260 346 18 134 274 325 334 332 333 328 313 314 322 332 334 337 348 356 10 23 14 5 8 10 359 353 347 355 3 4 1 1 358 7 13 6 6 2 356
220 215 224 221 240 286 277 263 271 321 319 323 325 328 321 309 312 325 331 333 340 344 344 354 17 8 357 359 0 350 336 351 359 2 357 356 359 358 3 7 0 360 357 350
243 266 255 269 266 283 279 286 328 334 317 323 328 326 326 313 312 321 326 327 335 339 342 350 7 5 345 345 347 349 346 355 1 1 356 359 4 0 5 10 15 15 7 359
266 250 264 267 279 294 269 298 314 317 321 326 324 320 319 319 317 320 319 321 327 329 326 341 345 331 333 346 352 2 8 16 6 356 353 356 360 1 8 16 20 14 15 7
248 244 246 256 280 283 296 319 323 313 313 316 318 323 331 319 309 320 320 324 327 332 342 353 343 335 335 343 347 353 359 12 9 356 355 357 1 5 8 359 359 6 -0 358
Height
1481 1483 1482 1481 1480 1479 1478 1479 1479 1475 1473 1476 1478 1477 1476 1476 1477 1477 1478 1479 1480 1481 1482 1483 1483 1483 1483 1482 1482 1483 1483 1484 1484 1485 1485 1486 1486 1487 1488 1489 1490 1490 1491 1492
1481 1482 1479 1477 1477 1477 1477 1480 1479 1476 1474 1476 1477 1475 1472 1472 1472 1473 1474 1476 1478 1479 1480 1480 1481 1481 1481 1481 1481 1481 1481 1482 1482 1483 1484 1484 1485 1486 1486 1487 1488 1488 1489 1490
1479 1479 1477 1476 1477 1477 1476 1478 1478 1478 1477 1475 1477 1475 1469 1467 1468 1470 1472 1473 1475 1477 1478 1479 1480 1479 1479 1479 1480 1480 1480 1480 1481 1481 1482 1482 1483 1483 1484 1485 1485 1486 1487 1487
1477 1476 1476 1476 1476 1476 1477 1474 1475 1476 1482 1481 1477 1481 1467 1465 1466 1467 1470 1472 1474 1475 1477 1477 1478 1478 1478 1478 1478 1478 1478 1478 1479 1479 1479 1480 1480 1480 1481 1482 1483 1484 1484 1485
1477 1476 1476 1476 1475 1475 1475 1474 1475 1476 1479 1481 1477 1480 1469 1463 1465 1466 1468 1470 1472 1474 1475 1476 1476 1477 1477 1477 1477 1477 1477 1476 1477 1477 1477 1477 1477 1478 1479 1480 1481 1481 1482 1482
1476 1475 1475 1476 1475 1475 1475 1476 1475 1475 1479 1484 1474 1476 1468 1463 1461 1463 1466 1468 1470 1472 1474 1475 1475 1476 1476 1475 1475 1475 1475 1475 1475 1475 1475 1475 1475 1475 1476 1477 1477 1478 1478 1479
1474 1473 1474 1475 1475 1475 1477 1481 1484 1483 1484 1477 1464 1467 1467 1459 1458 1460 1463 1466 1469 1471 1472 1473 1474 1474 1474 1473 1473 1473 1473 1473 1473 1473 1473 1473 1473 1473 1473 1473 1474 1475 1475 1475
1477 1476 1473 1474 1475 1476 1476 1477 1484 1484 1477 1469 1463 1465 1463 1458 1457 1459 1462 1465 1468 1470 1471 1471 1472 1472 1472 1471 1471 1471 1471 1471 1470 1470 1470 1470 1470 1470 1470 1471 1471 1471 1471 1471
1477 1476 1472 1472 1473 1474 1475 1476 1473 1478 1475 1476 1467 1461 1460 1457 1458 1460 1463 1465 1467 1468 1469 1470 1470 1470 1470 1469 1469 1469 1469 1468 1468 1468 1468 1467 1467 1467 1467 1467 1467 1467 1467 1468
1476 1479 1473 1473 1474 1474 1474 1474 1476 1478 1478 1473 1461 1458 1461 1459 1458 1460 1462 1464 1465 1466 1467 1468 1468 1468 1468 1468 1467 1467 1467 1466 1466 1465 1465 1464 1464 1464 1464 1464 1464 1464 1464 1464
1477 1481 1477 1475 1476 1474 1475 1475 1474 1474 1473 1473 1469 1465 1455 1456 1456 1458 1460 1462 1463 1465 1466 1466 1466 1466 1466 1466 1465 1465 1464 1463 1463 1462 1462 1461 1461 1460 1460 1460 1460 1460 1460 1460
1477 1480 1480 1475 1472 1471 1471 1471 1473 1478 1474 1469 1470 1469 1457 1456 1456 1457 1459 1461 1462 1463 1464 1465 1465 1464 1464 1463 1463 1462 1461 1460 1460 1459 1459 1458 1457 1457 1457 1456 1456 1457 1457 1457
1478 1482 1482 1476 1477 1476 1474 1472 1472 1475 1474 1471 1470 1468 1458 1457 1458 1459 1459 1460 1461 1462 1463 1463 1462 1462 1461 1461 1460 1459 1458 1457 1457 1456 1456 1455 1454 1454 1453 1453 1453 1453 1453 1453
1478 1483 1484 1480 1475 1475 1476 1474 1473 1476 1475 1470 1464 1463 1460 1460 1460 1460 1460 1460 1460 1461 1461 1461 1460 1460 1459 1459 1457 1456 1455 1455 1454 1453 1453 1452 1451 1451 1451 1450 1450 1450 1450 1449
1479 1482 1480 1477 1472 1473 1473 1473 1472 1473 1470 1469 1462 1461 1460 1461 1461 1460 1458 1458 1459 1459 1459 1459 1458 1458 1457 1456 1455 1454 1453 1452 1451 1451 1450 1449 1449 1448 1448 1447 1447 1447 1446 1446
1480 1481 1480 1477 1471 1471 1471 1470 1469 1468 1467 1465 1462 1461 1459 1459 1459 1458 1458 1457 1457 1457 1457 1457 1456 1455 1454 1453 1452 1451 1450 1450 1449 1448 1447 1447 1446 1446 1445 1445 1444 1444 1444 1443
1479 1481 1479 1474 1471 1471 1471 1467 1466 1465 1463 1463 1462 1460 1458 1457 1457 1456 1456 1456 1456 1455 1455 1454 1454 1453 1452 1451 1450 1449 1448 1448 1447 1446 1445 1444 1444 1443 1443 1442 1442 1441 1441 1441
1478 1478 1477 1475 1474 1474 1467 1462 1460 1461 1460 1460 1459 1458 1457 1457 1455 1455 1454 1454 1454 1454 1453 1452 1451 1450 1449 1449 1448 1447 1447 1446 1445 1444 1443 1442 1442 1441 1440 1440 1439 1439 1439 1439
1474 1476 1475 1475 1472 1464 1463 1461 1461 1461 1461 1459 1459 1457 1456 1454 1453 1453 1453 1453 1453 1452 1451 1450 1449 1448 1447 1447 1446 1445 1445 1444 1443 1442 1441 1441 1440 1439 1439 1438 1438 1438 1438 1437
1473 1474 1476 1472 1470 1466 1463 1461 1459 1461 1462 1459 1458 1457 1456 1454 1455 1454 1452 1451 1450 1450 1449 1448 1447 1446 1446 1445 1444 1444 1443 1442 1441 1441 1440 1439 1439 1438 1438 1437 1437 1437 1436 1436
1476 1475 1475 1471 1469 1464 1463 1461 1460 1465 1463 1460 1458 1457 1456 1455 1455 1453 1451 1450 1449 1448 1447 1446 1446 1445 1444 1444 1443 1443 1442 1441 1440 1440 1439 1438 1437 1437 1437 1436 1436 1435 1435 1434
1475 1474 1473 1470 1469 1467 1462 1461 1463 1464 1461 1459 1457 1456 1455 1453 1451 1450 1449 1448 1447 1446 1445 1445 1444 1444 1444 1443 1442 1441 1440 1440 1439 1438 1437 1437 1436 1436 1436 1435 1434 1434 1433 1433
1470 1470 1469 1469 1468 1464 1462 1461 1461 1460 1459 1458 1456 1454 1453 1451 1450 1448 1447 1446 1445 1445 1444 1444 1443 1443 1442 1442 1441 1440 1439 1438 1438 1437 1436 1436 1435 1435 1435 1434 1433 1433 1432 1432
1467 1466 1466 1466 1463 1461 1460 1459 1459 1458 1457 1456 1455 1453 1451 1450 1448 1447 1446 1445 1444 1444 1443 1443 1442 1441 1441 1441 1440 1439 1438 1437 1437 1436 1435 1435 1434 1434 1434 1433 1433 1432 1431 1431
1465 1465 1465 1464 1461 1459 1457 1458 1457 1456 1455 1454 1452 1451 1450 1448 1447 1446 1444 1443 1443 1442 1442 1441 1441 1440 1439 1439 1438 1438 1437 1436 1435 1435 1434 1434 1434 1433 1433 1432 1432 1431 1431 1431
1463 1464 1464 1461 1459 1458 1456 1455 1454 1453 1452 1451 1450 1448 1447 1447 1445 1444 1443 1442 1442 1441 1440 1439 1439 1439 1438 1438 1437 1437 1436 1436 1435 1434 1434 1433 1433 1433 1432 1432 1431 1431 1430 1430